www.pogodaiklimat.ru

Погода и климат >> Архив погоды >> Корея >> Ичхон


ПОГОДА в Ичхоне

  • Прогноз погоды в Ичхоне
  • Монитор погоды в Ичхоне

АРХИВ ПОГОДЫ в Ичхоне

Время (UTC), дата Ветер
(напр.,м/с)
 
Видим.   Явления Облачность Т
(С)
Тd
(С)
f
(%)
Тe
(С)
Тes
(С)
Комфортность P
(гПа)
Po
(гПа)
Тmin
(С)
Tmax
(С)
R
(мм)
R24
(мм)
S
(см)
15 16.07 С 1 1400 м 6/0
[]
+23.1 +21.7 92 +31 +31 очень
душно
1012.3 1003.1
18 16.07 СВ 1 1300 м 8/8 300 м
[]
+23.0 +22.3 96 +31 +31 очень
душно
1012.5 1003.3
21 16.07 3400 м н/о +22.3 +21.7 96 +29 +30 очень
душно
1012.9 1003.7
00 17.07 В 2 9000 м 8/8 300 м
[]
+26.1 +21.7 77 +34 +36 очень
душно
1012.3 1003.2 +22.2 0.1
03 17.07 СВ 1 6000 м 10/1 1000 м
[]
+28.3 +21.5 67 +36 +47 очень
душно
1012.1 1003.1
06 17.07 СВ 1 8000 м 8/8 1000 м
[]
+29.8 +20.6 58 +37 +40 очень
душно
1010.6 1001.6
09 17.07 ЮЗ 1 9000 м 10/1
[]
+28.8 +20.2 60 +35 +37 очень
душно
1009.8 1000.8
12 17.07 штиль 0 3300 м ?/? +25.3 +21.7 80 +32 +32 очень
душно
1010.7 1001.6 +30.9 0.0
15 17.07 штиль 0 2800 м ?/? +24.1 +21.9 88 +31 +31 очень
душно
1011.1 1002.0
18 17.07 штиль 0 1800 м ?/? +22.7 +22.0 96 +31 +31 очень
душно
1011.0 1001.8
21 17.07 ЮВ 3 4300 м 10/1 300 м
[]
+23.0 +21.8 93 +31 +31 очень
душно
1011.0 1001.8
00 18.07 СЗ 2 11 км 8/0
[]
+26.5 +20.5 70 +33 +39 очень
душно
1010.3 1001.2 +22.2 0.1
03 18.07 В 2 8000 м 8/3
[]
+28.9 +20.8 62 +36 +45 очень
душно
1009.1 1000.1
06 18.07 Ю 2 13 км 3/3 1000 м
[]
+31.4 +20.6 53 +38 +50 очень
душно
1007.7 998.8
09 18.07 Ю 3 18 км 8/0
[]
+29.9 +19.8 55 +36 +37 очень
душно
1006.7 997.8
12 18.07 З 2 20 км 6/0
[]
+27.1 +19.6 64 +33 +33 очень
душно
1008.0 999.0 +31.9 0.0
15 18.07 ЮЗ 2 4700 м 4/0
[]
+24.8 +20.6 77 +31 +31 очень
душно
1008.9 999.8
18 18.07 штиль 0 1800 м 6/0
[]
+21.8 +20.7 93 +28 +28 душно 1008.0 998.8
21 18.07 штиль 0 2900 м 4/3 2000 м
[]
+21.5 +21.4 99 +27 +28 душно 1008.3 999.1
00 19.07 В 3 15 км 4/0
[]
+28.4 +21.6 67 +36 +43 очень
душно
1007.2 998.2 +21.4 0.0
03 19.07 В 2 19 км 8/0
[]
+31.6 +20.5 52 +39 +51 опасность
солнечного
удара
1006.3 997.4
06 19.07 ЮВ 4 20 км 8/8 1000 м
[]
+31.3 +21.4 56 +39 +42 очень
душно
1005.6 996.7
09 19.07 СВ 1 19 км 10// 1000 м
[]
+25.7 +24.6 94 +36 +38 очень
душно
1006.7 997.6
12 19.07 СВ 2 7000 м 8/0
[]
+25.0 +24.9 99 +35 +35 очень
душно
1007.0 997.9 +34.2 3
15 19.07 СВ 1 19 км 10//
[]
+25.1 +23.3 90 +34 +34 очень
душно
1006.8 997.7
18 19.07 В 2 15 км 9/0
[]
+24.0 +23.3 96 +32 +32 очень
душно
1005.2 996.2
21 19.07 В 2 15 км 10/1 1500 м
[]
+23.8 +22.4 92 +31 +31 очень
душно
1004.1 995.1
00 20.07 СВ 4 18 км ?/? +24.3 +22.7 91 +32 +32 очень
душно
1003.1 994.1 +23.6 2
03 20.07 В 5 19 км 10/6 600 м
[]
+27.6 +23.8 80 +38 +38 очень
душно
1001.4 992.5
06 20.07 В 3 20 км ?/? +30.0 +23.9 70 +41 +46 опасность
перегрева
999.4 990.5 0.6
09 20.07 В 3 20 км 10/6 1000 м
[]
+28.5 +22.7 71 +38 +38 очень
душно
998.8 989.9
12 20.07 СВ 3 20 км ?/? +25.5 +23.1 87 +34 +34 очень
душно
999.1 990.1 +30.1 0.8
15 20.07 СВ 1 4000 м 9// 1000 м
[]
+24.3 +23.0 92 +32 +32 очень
душно
998.8 989.8
18 20.07 СВ 2 2600 м ?/? +23.7 +23.6 99 +32 +32 очень
душно
998.1 989.1
21 20.07 штиль 0 2900 м 10//
[]
+23.6 +23.5 99 +32 +32 очень
душно
998.8 989.8
00 21.07 ЮЗ 3 н/о ?/? +24.5 +24.4 99 +34 +34 очень
душно
1000.4 991.4 +23.5 16
03 21.07 З 2 1800 м 10// 200 м
[]
+24.8 +24.7 99 +35 +45 очень
душно
1002.0 992.9
06 21.07 ЮЗ 3 н/о 5/5 300 м
[]
+25.8 +25.4 98 +38 +43 очень
душно
1002.1 993.1 2
09 21.07 14 км н/о +26.3 +23.1 83 +35 +37 очень
душно
1003.5 994.5
12 21.07 ЮЗ 5 9000 м 8/8 1000 м
[]
+25.5 +22.7 85 +34 +34 очень
душно
1005.5 996.4 +27.4 2
15 21.07 4000 м н/о +24.8 +22.4 87 +32 +32 очень
душно
1006.1 997.0
18 21.07 З 1 2800 м 8/8 300 м
[]
+24.5 +22.7 90 +32 +32 очень
душно
1006.5 997.5
21 21.07 1800 м н/о +24.4 +23.3 94 +33 +33 очень
душно
1006.8 997.8
00 22.07 ЮЗ 2 3100 м 8/8 600 м
[]
+25.4 +22.8 86 +34 +36 очень
душно
1007.6 998.5 +24.3 0.1
03 22.07 З 2 3300 м 9/8 600 м
[]
+27.4 +23.0 77 +37 +40 очень
душно
1006.9 997.9
06 22.07 З 2 4500 м 6/6 600 м
[]
+30.7 +23.8 67 +42 +48 опасность
перегрева
1005.7 996.8
09 22.07 З 2 7000 м 6/1 1000 м
[]
+30.8 +22.6 62 +40 +42 очень
душно
1005.0 996.1
12 22.07 З 2 6000 м 6/0
[]
+27.2 +23.4 80 +37 +37 очень
душно
1006.4 997.4 +32.0 0.0
15 22.07 З 1 3200 м 8/0
[]
+25.3 +23.1 88 +34 +34 очень
душно
1007.3 998.2
18 22.07 З 1 4400 м 6/6 300 м
[]
+24.7 +22.7 89 +33 +33 очень
душно
1007.3 998.3
21 22.07 штиль 0 2700 м 10/4 300 м
[]
+24.3 +23.4 95 +33 +33 очень
душно
1007.1 998.1
00 23.07 В 1 3100 м 9/9 300 м
[]
+26.1 +23.7 87 +36 +37 очень
душно
1007.5 998.4 +24.0 0.0
03 23.07 СЗ 1 8000 м 8/1 600 м
[]
+30.4 +24.0 69 +42 +55 опасность
перегрева
1006.3 997.4
06 23.07 ЮЗ 2 20 км 6/6 1000 м
[]
+33.2 +22.6 54 +43 +51 опасность
перегрева
1003.8 995.0
09 23.07 ЮЗ 2 19 км 6/4 1000 м
[]
+31.3 +22.8 61 +41 +42 опасность
перегрева
1002.6 993.7
12 23.07 З 1 18 км 6/6 2000 м
[]
+28.5 +23.8 76 +39 +39 очень
душно
1004.1 995.2

 

Местоположение метеостанции Ичхон (Корея): широта 37.27 долгота 127.48 высота над уровнем моря 91 м.

В архиве по умолчанию представлена погода в Ичхоне за последнюю неделю. Архивные данные за месяц целиком и за предыдущие месяцы, начиная с января 2011 года, Вы можете получить, выбрав интересующий диапазон дат из раскрывающегося списка и нажав кнопку "Ввод!".


*Определитесь, кто Вы:
робот инопланетянин человек

Внимание! Время в таблицах - всемирное. Для получения местного времени необходимо прибавить поправку, которая равна 9 ч.

Смотрите также архив погоды в соседних городах и на ближайших метеорологических станциях:

Погода в Вонджу (Корея) (42 км)
Погода в Сувоне (Корея) (44 км)
Погода на Базе Camp Humphreys (Корея) (53 км)
Погода в Сеуле (Корея) (57 км)
Погода в Чхонане (Корея) (64 км)
Погода в Чунчоне (Корея) (71 км)
Погода в Чхонджу (Корея) (71 км)
Погода в Чхунчхоне (Корея) (73 км)
Погода в Букчунчеоне (Корея) (75 км)
Погода в Инчхоне (Корея) (78 км)

Пояснения к столбцам:

Ветер - указаны скорость ветра в м/с - средняя за 10 мин, порывы в срок и между сроками (в фигурных скобках) и направление, откуда дует ветер: С - северный, СВ - северо-восточный, В - восточный, ЮВ - юго-восточный, Ю - южный, ЮЗ - юго-западный, З - западный, СЗ - северо-западный.
Видимость - горизонтальная дальность видимости в метрах или километрах. При видимости от 1 до 10 км при отсутствии осадков обычно наблюдается дымка, при ухудшении видимости до 1 км и менее - туман. В сухую погоду видимость может ухудшаться дымом, пылью или мглою.
Явления - указаны атмосферные явления, наблюдавшиеся в срок или в последний час перед сроком; фигурными скобками обозначены явления, наблюдавшиеся между сроками (за 1-3 часа до срока); квадратными скобками обозначены град или гололедные отложения с указанием их диаметра в мм.
Облачность - указаны через наклонную черту общая и нижняя облачность в баллах и высота нижней границы облаков в метрах; квадратными скобками обозначены формы облаков: Ci - перистые, Cs - перисто-слоистые, Cc - перисто-кучевые, Ac - высококучевые, As - высокослоистые, Sc - слоисто-кучевые, Ns - слоисто-дождевые, Cu - кучевые, Cb - кучево-дождевые. Подробнее классификацию облаков см. в Атласе облаков (PDF).
T - Температура воздуха - температура, измеренная на высоте 2 м над землей.
Td - Температура точки росы - температура, при понижении до которой содержащийся в воздухе водяной пар достигнет насыщения.
f - Относительная влажность воздуха - влажноcть воздуха, измеренная на высоте 2 м над землей.
Te - Эффективная температура - температура, которую ощущает одетый по сезону человек в тени. Характеристика душности погоды. При расчете учитывается влияние влажности воздуха и скорости ветра на теплоощущения человека.
Tes - Эффективная температура на солнце - температура, которую ощущает человек, с поправкой на солнечный нагрев. Характеристика знойности погоды. Зависит от высоты солнца над горизонтом, облачности и скорости ветра. Ночью, в пасмурную погоду, а также при ветре 12 м/с и более поправка равна нулю.
P - Атмосферное давление - приведенное к уровню моря атмосферное давление.
Po - Атмосферное давление - измеренное на уровне метеостанции атмосферное давление.
Tmin - Минимальная температура - минимум температуры воздуха на высоте 2 м над землей.
Tmax - Максимальная температура - максимум температуры воздуха на высоте 2 м над землей.
R - Количество осадков - Количество выпавших осадков за период времени, мм. При наведении курсора мыши на число - период времени, за который выпало указанное количество осадков.
R24 - Количество осадков - Количество выпавших осадков за 24 часа, мм.
S - Снежный покров - Высота снежного покрова, см. При наведении курсора мыши на число - состояние снежного покрова и степень покрытия местности в баллах.